Regional Weather Roundup
Issued by NWS New Orleans/Baton Rouge, LA

Home | Current Version | Previous Version | Text Only | Print | Product List | Glossary On
Versions: 1 2 3 4 5 6 7 8 9 10 11 12 13 14 15 16 17 18 19 20 21 22 23 24 25 26 27 28 29 30 31 32 33 34 35 36 37 38 39 40 41 42 43 44 45 46 47 48 49 50
807
ASUS44 KLIX 201413
RWRLIX
NEW ORLEANS REGIONAL WEATHER ROUNDUP
NATIONAL WEATHER SERVICE NEW ORLEANS LA
900 AM CDT SUN AUG 20 2017

NOTE: "FAIR" INDICATES FEW OR NO CLOUDS BELOW 12,000 FEET WITH NO
      SIGNIFICANT WEATHER AND/OR OBSTRUCTIONS TO VISIBILITY.
      SKY/WX - SKY CONDITION AND SIGNIFICANT WEATHER.
      TMP - AIR TEMPERATURE.     DP    - DEWPOINT TEMPERATURE.
      RH  - RELATIVE HUMIDITY.   PRES  - PRESSURE.
      HI  - HEAT INDEX.          WCI   - WIND CHILL INDEX.

*  THESE STATIONS ARE NOT NWS OR FAA STATIONS AND ARE NOT UNDER
   NWS QUALITY CONTROL.

LAZ038-040-048-061>063-065>067-069-201500-
SOUTHEAST LOUISIANA

CITY           SKY/WX    TMP DP  RH WIND       PRES   REMARKS
N.O. INTL ARPT PTSUNNY   84  77  79 VRB3      30.04R
N.O. LAKEFRONT SUNNY     84  75  74 NE8       30.05R
N.O. DOWNTOWN*   N/A     84  76  76 VRB3      30.05S
RESERVE*         N/A     85  78  79 CALM      30.05R HX  98
SLIDELL        SUNNY     81  73  76 NE6       30.05R
BATON ROUGE    SUNNY     78  74  87 E5        30.05R
BOOTHVILLE     SUNNY     86  71  60 NE6       30.05R
BELLE CHASSE   NOT AVBL
BOGALUSA*        N/A     80  73  78 CALM      30.08S
GALLIANO*      SUNNY     85  76  76 E3        30.04R
NEW ROADS*       N/A     79  75  89 CALM      30.05S
GONZALES*        N/A     81  76  85 E3        30.04S
HAMMOND*       SUNNY     81  72  74 E3        30.06R
HOUMA*         SUNNY     82  79  89 NE7       30.04R
PORT FOURCHON* SUNNY     86  75  70 NE8       30.03S HX  95

$$

MSZ070-080>082-201500-
SOUTHERN MISSISSIPPI

CITY           SKY/WX    TMP DP  RH WIND       PRES   REMARKS
MCCOMB         SUNNY     81  73  76 VRB3      30.07R
GULFPORT       SUNNY     82  73  74 N5        30.05R
BILOXI         SUNNY     80  73  79 NE7       30.06R
PASCAGOULA     SUNNY     82  74  76 CALM      30.06R

$$

COASTAL OBSERVATIONS
LAKE AND NEARSHORE STATIONS

STATION/POSITION TIME  TEMP    WIND        PRES    WAVE
                       AIR SEA DIR/SP/G            HT/PER
                 (UTC) (F)     (DEG/KT/KT) (MB)    (FT/S)
PASCAGOULA       1348   81      30/  5/  6 1017.3
WAVELAND YACHT   1348   79 86   40/  5/  5 1017.8
GRAND ISLE       1348   85 89   70/ 10/ 11 1017.3
SOUTHWEST PASS   1348   86      20/  3/  4   N/A
NEW CANAL        1348   82 87   60/  6/  7 1017.3
SHELL BEACH      1348   84 90   60/  8/ 10 1017.5

OFFSHORE STATIONS

STATION/POSITION TIME  TEMP    WIND        PRES    WAVE
                       AIR SEA DIR/SP/G            HT/PER
                 (UTC) (F)     (DEG/KT/KT) (MB)    (FT/S)
64 S DAUPHIN ISL 1350   85 88   70/  2/  4 1017.1    1/ 4

$$





USA.gov is the U.S. government's official web portal to all federal, state and local government web resources and services.